GW3546 Weather Reports


time (UTC)temp
F
wind
direction
speed
knots
gust
knots
rain 1hr
in
rain 24hr
in
rain mn
in
humidity
%
barometer
mb
20260904203006 64 331 12.2 17.4 0.00 0.00 0.00 44 1001.3
20260904201507 63 360 12.2 18.2 0.00 0.00 0.00 45 1001.2
20260904200004 61 325 13.0 17.4 0.00 0.00 0.00 48 1001.3
20260904194507 59 360 10.4 15.6 0.00 0.00 0.00 51 1000.8
20260904193003 58 317 9.6 16.5 0.00 0.00 0.00 53 1000.5
20260904191501 58 338 12.2 18.2 0.00 0.00 0.00 53 1000.4
20260904190003 57 349 11.3 15.6 0.00 0.00 0.00 54 1000.3
20260904184501 58 323 10.4 14.8 0.00 0.00 0.00 54 1000.1
20260904183112 58 348 10.4 15.6 0.00 0.00 0.00 53 999.9
20260904181602 57 360 10.4 15.6 0.00 0.00 0.00 56 999.9
20260904180106 56 360 10.4 14.8 0.00 0.00 0.00 57 999.8
20260904174607 55 36 12.2 15.6 0.00 0.00 0.00 58 999.5
20260904173116 55 22 10.4 14.8 0.00 0.00 0.00 58 999.4
20260904171600 55 44 10.4 13.9 0.00 0.00 0.00 58 999.0
20260904164555 61 265 5.2 9.6 0.00 0.00 0.00 47 999.1
20260904163050 61 232 0.9 3.5 0.00 0.00 0.00 46 998.9
20260904161550 61 217 2.6 10.4 0.00 0.00 0.00 47 998.8
20260904160049 63 179 5.2 8.7 0.00 0.00 0.00 43 998.8
20260904154549 64 176 7.0 14.8 0.00 0.00 0.00 40 998.8
20260904153056 65 156 8.7 17.4 0.00 0.00 0.00 38 998.2
20260904151549 65 141 14.8 20.0 0.00 0.00 0.00 39 997.5
20260904150051 64 82 11.3 16.5 0.00 0.00 0.00 40 996.6
20260904144546 64 84 12.2 23.5 0.00 0.00 0.00 40 997.1
20260904143042 63 97 11.3 20.0 0.00 0.00 0.00 40 997.1
20260904141542 62 90 12.2 18.2 0.00 0.00 0.00 41 997.4
20260904140042 62 101 13.0 17.4 0.00 0.00 0.00 41 997.4
20260904134539 62 123 14.8 19.1 0.00 0.00 0.00 41 997.5
20260904133038 62 117 10.4 16.5 0.00 0.00 0.00 41 997.4
20260904131537 62 84 8.7 13.0 0.00 0.00 0.00 41 997.5
20260904130037 62 132 8.7 16.5 0.00 0.00 0.00 41 997.5
20260904124548 62 82 11.3 15.6 0.00 0.00 0.00 41 997.2
20260904123036 62 61 9.6 15.6 0.00 0.00 0.00 41 997.2
20260904121534 61 97 7.8 14.8 0.00 0.00 0.00 41 997.3
20260904120032 62 88 9.6 14.8 0.00 0.00 0.00 40 997.3
20260904114539 63 121 8.7 16.5 0.00 0.00 0.00 39 997.4
20260904113039 64 80 13.0 19.1 0.00 0.00 0.00 38 997.4
20260904111530 63 75 12.2 20.9 0.00 0.00 0.00 39 997.5
20260904110028 65 105 14.8 23.5 0.00 0.00 0.00 37 997.7
20260904104529 64 82 15.6 24.3 0.00 0.00 0.00 38 997.7
20260904103035 64 82 16.5 23.5 0.00 0.00 0.00 37 997.7
20260904101526 65 81 19.1 25.2 0.00 0.00 0.00 37 998.0
20260904100023 64 81 17.4 25.2 0.00 0.00 0.00 39 998.1
20260904094521 64 88 16.5 23.5 0.00 0.00 0.00 40 998.2
20260904093020 64 82 14.8 23.5 0.00 0.00 0.00 41 998.4
20260904091516 63 92 13.9 21.7 0.00 0.00 0.00 42 998.7
20260904090014 62 91 11.3 16.5 0.00 0.00 0.00 43 998.9
20260904084511 61 73 6.1 10.4 0.00 0.00 0.00 46 999.1
20260904083009 60 93 5.2 10.4 0.00 0.00 0.00 47 999.3
20260904081507 60 103 7.0 10.4 0.00 0.00 0.00 47 999.4
20260904080006 60 90 7.8 11.3 0.00 0.00 0.00 47 999.5
20260904074503 58 92 7.0 8.7 0.00 0.00 0.00 50 999.7
20260904073107 58 98 5.2 7.0 0.00 0.00 0.00 50 1000.1
20260904071601 59 82 0.9 2.6 0.00 0.00 0.00 50 1000.2
20260904070109 58 80 1.7 3.5 0.00 0.00 0.00 50 1000.3
20260904064556 59 86 2.6 5.2 0.00 0.00 0.00 50 1000.2
20260904063057 58 87 2.6 6.1 0.00 0.00 0.00 51 1000.5
20260904061600 55 89 3.5 7.0 0.00 0.00 0.00 54 1000.8
20260904060047 56 126 4.3 9.6 0.00 0.00 0.00 52 1001.0
20260904054549 57 89 6.1 9.6 0.00 0.00 0.00 50 1001.2
20260904053046 58 86 7.8 10.4 0.00 0.00 0.00 50 1001.4
20260904051545 60 55 0.9 3.5 0.00 0.00 0.00 49 1001.4
20260904050045 59 46 1.7 6.1 0.00 0.00 0.00 49 1001.3
20260904044544 58 34 2.6 3.5 0.00 0.00 0.00 53 1001.0
20260904043056 58 43 2.6 5.2 0.00 0.00 0.00 50 1001.1
20260904041543 58 51 2.6 4.3 0.00 0.00 0.00 50 1001.1
20260904040042 58 36 2.6 4.3 0.00 0.00 0.00 49 1001.4
20260904034549 56 40 3.5 4.3 0.00 0.00 0.00 52 1001.3
20260904033042 57 33 2.6 5.2 0.00 0.00 0.00 50 1001.4
20260904031544 58 27 3.5 5.2 0.00 0.00 0.00 49 1001.5
20260904030040 56 36 3.5 7.0 0.00 0.00 0.00 51 1001.5
20260904024538 56 34 3.5 7.0 0.00 0.00 0.00 51 1001.3
20260904023037 57 26 3.5 5.2 0.00 0.00 0.00 50 1001.0
20260904021540 59 18 2.6 5.2 0.00 0.00 0.00 47 1000.9
20260904020036 61 318 3.5 7.0 0.00 0.00 0.00 46 1000.8
20260904014544 61 317 2.6 7.0 0.00 0.00 0.00 45 1000.6
20260904013035 62 297 4.3 10.4 0.00 0.00 0.00 44 1000.7
20260904011535 64 261 7.8 14.8 0.00 0.00 0.00 41 1000.8
20260904010033 65 259 10.4 14.8 0.00 0.01 0.00 39 1000.9
20260904004535 65 256 8.7 15.6 0.00 0.01 0.00 40 1000.8
20260904003033 65 283 9.6 16.5 0.00 0.01 0.00 40 1000.7
20260904001529 65 250 14.8 18.2 0.00 0.01 0.00 38 1000.6
20260904000107 66 261 15.6 23.5 0.00 0.06 0.00 39 1000.6
20260903234527 66 251 10.4 18.2 0.00 0.06 0.00 37 1000.4
20260903233026 66 269 12.2 21.7 0.00 0.06 0.00 38 1000.5
20260903231525 66 273 16.5 24.3 0.00 0.06 0.00 40 1000.4
20260903230026 67 217 15.6 21.7 0.00 0.06 0.00 39 1000.2
20260903224536 67 258 15.6 25.2 0.00 0.06 0.00 39 1000.0
20260903223018 67 263 16.5 23.5 0.00 0.06 0.00 40 999.7
20260903221517 67 227 16.5 22.6 0.00 0.06 0.00 41 999.7
20260903220017 68 279 13.9 19.1 0.00 0.06 0.00 41 999.3
20260903214521 68 249 13.9 22.6 0.00 0.06 0.00 42 999.3
20260903213024 68 248 13.0 22.6 0.00 0.06 0.00 41 999.3
20260903211510 67 281 11.3 26.1 0.00 0.06 0.00 43 999.1
20260903210009 66 265 8.7 20.0 0.00 0.06 0.00 43 999.0
20260903204508 66 229 12.2 16.5 0.00 0.06 0.00 42 999.1